Home > Weather > Kaufbeuren > Past weeks

Flag for Germany Past Weather in Kaufbeuren, Bavaria, Germany — Yesterday and Last 2 Weeks

Now
70 °F

Broken clouds.


Feels Like: 70 °F
Forecast: 56 / 75 °F
Wind: 16 mph from West

Location: Altenstadt Airport

Current Time: Jul 27, 2016 at 7:19:35 PM

Latest Report: Jul 27, 2016 at 6:20 PM


Visibility: N/A

Pressure: 30.07 "Hg (27.74 "Hg at 693m altitude)

Humidity: 73%

Dew Point: 61 °F

Location of KaufbeurenLocation

Past Weather in Kaufbeuren — Graph

°F

Kaufbeuren Temperature Yesterday

Maximum temperature yesterday: 79 °F (at 1:20 PM)
Minimum temperature yesterday: 59 °F (at 10:20 PM)
Average temperature yesterday: 66 °F

High & Low Weather Summary for the Past Weeks

 TemperatureHumidityPressure
High82 °F (Jul 20, 4:20 PM)100% (Jul 12, 9:20 PM)30.36 "Hg (Jul 12, 9:20 PM)
Low46 °F (Jul 13, 11:20 PM)42% (Jul 20, 4:20 PM)29.98 "Hg (Jul 13, 12:20 AM)
Average62 °F79%30.15 "Hg
* Reported Jul 12 5:20 PM — Jul 27 5:20 PM, Kaufbeuren, Weather by CustomWeather, © 2016

Note: Actual official high and low records may vary slightly from our data, if they occured in-between our weather recording intervals... More about our weather records

Advertising

Kaufbeuren Weather History for the Previous 24 Hours

Scroll right to see more
 ConditionsComfort  
Time TempWeatherWind HumidityBarometerVisibility
5:20 PM
Wed, Jul 27
66 °FPartly sunny.7 mph88%30.09 "HgN/A
4:20 PM66 °FThunderstorms. Broken clouds.13 mph88%30.07 "Hg5 mi
3:20 PM72 °FPartly sunny.8 mph65%30.07 "HgN/A
2:20 PM73 °FPartly sunny.9 mph65%30.07 "HgN/A
1:20 PM75 °FScattered clouds.6 mph61%30.09 "HgN/A
12:20 PM72 °FScattered clouds.3 mph69%30.12 "HgN/A
11:20 AM72 °FPartly sunny.6 mph69%30.12 "HgN/A
10:20 AM66 °FPartly sunny.5 mph83%30.12 "HgN/A
9:20 AM63 °FPartly sunny.2 mph88%30.12 "HgN/A
8:20 AM61 °FPartly sunny.5 mph94%30.12 "HgN/A
7:20 AM57 °FPartly sunny.5 mph94%30.12 "HgN/A
6:20 AM55 °FPassing clouds.5 mph94%30.12 "HgN/A
5:20 AM54 °FPassing clouds.3 mph100%30.12 "HgN/A
4:20 AM54 °FCool.6 mph100%30.12 "HgN/A
3:20 AM55 °FCool.3 mph94%30.15 "HgN/A
2:20 AM55 °FCool.3 mph100%30.15 "HgN/A
1:20 AM55 °FCool.3 mph94%30.15 "HgN/A
12:20 AM57 °FCool.3 mph94%30.15 "HgN/A
11:20 PM
Tue, Jul 26
59 °FCool.5 mph88%30.15 "HgN/A
10:20 PM59 °FCool.6 mph94%30.15 "HgN/A
9:20 PM61 °FCool.3 mph88%30.15 "HgN/A
9:00 PM61 °FPartly sunny.5 mph88%30.15 "HgN/A
8:20 PM63 °FPartly sunny.3 mph83%30.15 "HgN/A
7:20 PM63 °FPartly sunny.3 mph88%30.15 "HgN/A
Weather by CustomWeather, © 2016

See weather overviewHow to use our weather pages